Date String (YYYY-MM-DD hh:mm:ss) UTC,Instrument flags,absolute air pressure of the measurement (hPa),sample flow rate (lpm),inlet stack bypass flow (lpm),air temperature of the measurement (°C),ambient temperature measured by the external sensor (°C),aerosol sample conditioner tube jacket temperature (°C),OPC LED temperature (°C),internal box temperature (°C),relative humidity of the measurement (%),span deviation,mass concentration of particles derived from Lorenz-Mie calculation of OPC scattering (μg/m³),mass concentration of particles derived from Lorenz-Mie calculation of OPC scattering (μg/m³),mass concentration of particles derived from Lorenz-Mie calculation of OPC scattering (μg/m³)
DateTimeUTC,F1_M11,P_M11,Q1_M11,Q2_M11,T1_M11,T2_M11,T3_M11,T4_M11,T5_M11,U1_M11,ZSPAN_M11,X2_M11,X0_M11,X1_M11
2023-11-10 20:00:00,SystemResetWarning,0830.5,4.99,000.00,024.9,024.2,000.0,033.2,026.4,7.1,0000.0,0003.24,0008.01,0002.53
2023-11-10 20:01:00,SystemResetWarning,0830.5,4.99,000.00,024.9,024.2,000.0,033.2,026.3,7.4,0000.0,0003.27,0007.80,0002.52
2023-11-10 20:02:00,SystemResetWarning,0830.5,5.00,000.00,024.9,024.2,000.0,033.2,026.4,7.3,0000.0,0003.27,0007.63,0002.51
2023-11-10 20:03:00,SystemResetWarning,0830.5,4.99,000.00,024.9,024.2,000.0,033.2,026.4,7.3,0000.0,0003.24,0007.59,0002.49
2023-11-10 20:04:00,SystemResetWarning,0830.7,5.00,000.00,025.0,024.2,000.0,033.2,026.4,7.2,0000.0,0003.24,0008.31,0002.49
2023-11-10 20:05:00,SystemResetWarning,0830.5,5.00,000.00,025.0,024.2,000.0,033.2,026.4,7.3,0000.0,0003.25,0008.42,0002.51
2023-11-10 20:06:00,SystemResetWarning,0830.6,5.00,000.00,025.0,024.2,000.0,033.2,026.5,7.2,0000.0,0003.26,0008.20,0002.54
2023-11-10 20:07:00,SystemResetWarning,0830.4,5.00,000.00,025.0,024.2,000.0,033.2,026.5,6.9,0000.0,0003.29,0008.05,0002.58
2023-11-10 20:08:00,SystemResetWarning,0830.4,5.00,000.00,025.0,024.2,000.0,033.2,026.5,6.8,0000.0,0003.30,0007.80,0002.61
2023-11-10 20:09:00,SystemResetWarning,0830.4,5.01,000.00,025.0,024.3,000.0,033.2,026.5,7.1,0000.0,0003.34,0007.90,0002.61
2023-11-10 20:10:00,SystemResetWarning,0830.4,5.00,000.00,025.0,024.3,000.0,033.2,026.6,7.3,0000.0,0003.39,0007.96,0002.62
2023-11-10 20:11:00,SystemResetWarning,0830.4,5.01,000.00,025.1,024.3,000.0,033.3,026.6,7.2,0000.0,0003.40,0007.60,0002.63
2023-11-10 20:12:00,SystemResetWarning,0830.4,5.00,000.00,025.1,024.3,000.0,033.3,026.6,7.1,0000.0,0003.39,0007.78,0002.63
2023-11-10 20:13:00,SystemResetWarning,0830.3,5.00,000.00,025.1,024.4,000.0,033.3,026.6,7.0,0000.0,0003.44,0007.95,0002.66
2023-11-10 20:14:00,SystemResetWarning,0830.3,5.00,000.00,025.1,024.4,000.0,033.3,026.6,7.0,0000.0,0003.47,0008.08,0002.68
2023-11-10 20:15:00,SystemResetWarning,0830.3,4.99,000.00,025.1,024.4,000.0,033.3,026.6,7.0,0000.0,0003.46,0007.19,0002.68
2023-11-10 20:16:00,SystemResetWarning,0830.3,5.00,000.00,025.1,024.4,000.0,033.3,026.6,6.8,0000.0,0003.46,0007.00,0002.67
2023-11-10 20:17:00,SystemResetWarning,0830.3,4.99,000.00,025.1,024.4,000.0,033.3,026.6,6.5,0000.0,0003.45,0007.13,0002.64
2023-11-10 20:18:00,SystemResetWarning,0830.4,5.00,000.00,025.2,024.4,000.0,033.3,026.7,6.5,0000.0,0003.38,0007.25,0002.60
2023-11-10 20:19:00,SystemResetWarning,0830.3,4.99,000.00,025.2,024.4,000.0,033.4,026.6,6.4,0000.0,0003.35,0007.20,0002.55
2023-11-10 20:20:00,SystemResetWarning,0830.3,5.00,000.00,025.2,024.4,000.0,033.4,026.6,6.4,0000.0,0003.32,0007.09,0002.52
2023-11-10 20:21:00,SystemResetWarning,0830.3,4.99,000.00,025.2,024.4,000.0,033.4,026.6,6.5,0000.0,0003.27,0006.79,0002.49
2023-11-10 20:22:00,SystemResetWarning,0830.3,5.00,000.00,025.2,024.4,000.0,033.4,026.7,6.6,0000.0,0003.22,0006.69,0002.46
2023-11-10 20:23:00,SystemResetWarning,0830.3,5.00,000.00,025.2,024.5,000.0,033.4,026.7,6.6,0000.0,0003.19,0006.41,0002.43
2023-11-10 20:24:00,SystemResetWarning,0830.3,5.00,000.00,025.2,024.5,000.0,033.4,026.7,6.6,0000.0,0003.15,0005.82,0002.39
2023-11-10 20:25:00,SystemResetWarning,0830.3,5.00,000.00,025.2,024.5,000.0,033.4,026.8,6.6,0000.0,0003.15,0005.67,0002.36
2023-11-10 20:26:00,SystemResetWarning,0830.3,5.00,000.00,025.3,024.5,000.0,033.4,026.8,6.6,0000.0,0003.14,0005.65,0002.34
2023-11-10 20:27:00,SystemResetWarning,0830.3,5.00,000.00,025.3,024.5,000.0,033.5,026.8,6.6,0000.0,0003.13,0005.72,0002.33
2023-11-10 20:28:00,SystemResetWarning,0830.3,5.00,000.00,025.3,024.6,000.0,033.5,026.8,6.5,0000.0,0003.12,0005.64,0002.31
2023-11-10 20:29:00,SystemResetWarning,0830.3,5.00,000.00,025.3,024.6,000.0,033.5,026.8,6.5,0000.0,0003.14,0005.34,0002.29
2023-11-10 20:30:00,SystemResetWarning,0830.3,5.00,000.00,025.3,024.6,000.0,033.5,026.8,6.6,0000.0,0003.15,0005.53,0002.28
2023-11-10 20:31:00,SystemResetWarning,0830.2,5.00,000.00,025.3,024.6,000.0,033.5,026.8,6.6,0000.0,0003.15,0006.60,0002.28
2023-11-10 20:32:00,SystemResetWarning,0830.3,4.99,000.00,025.3,024.6,000.0,033.5,026.9,6.6,0000.0,0003.14,0007.20,0002.26
2023-11-10 20:33:00,SystemResetWarning,0830.2,5.00,000.00,025.4,024.6,000.0,033.5,026.9,6.4,0000.0,0003.14,0007.40,0002.25
2023-11-10 20:34:00,SystemResetWarning,0830.3,5.00,000.00,025.4,024.6,000.0,033.6,026.9,6.1,0000.0,0003.16,0007.41,0002.26
2023-11-10 20:35:00,SystemResetWarning,0830.3,5.00,000.00,025.4,024.7,000.0,033.6,026.9,6.0,0000.0,0003.17,0007.37,0002.26
2023-11-10 20:36:00,SystemResetWarning,0830.2,5.00,000.00,025.4,024.7,000.0,033.6,026.9,5.9,0000.0,0003.16,0007.33,0002.25
2023-11-10 20:37:00,SystemResetWarning,0830.3,5.00,000.00,025.4,024.7,000.0,033.6,026.9,5.9,0000.0,0003.16,0007.31,0002.23
2023-11-10 20:38:00,SystemResetWarning,0830.2,5.00,000.00,025.4,024.7,000.0,033.6,026.9,5.8,0000.0,0003.15,0007.20,0002.22
2023-11-10 20:39:00,SystemResetWarning,0830.2,5.00,000.00,025.4,024.7,000.0,033.6,026.9,5.9,0000.0,0003.14,0007.19,0002.19
2023-11-10 20:40:00,SystemResetWarning,0830.2,4.99,000.00,025.4,024.7,000.0,033.6,026.9,5.8,0000.0,0003.09,0007.06,0002.15
2023-11-10 20:41:00,SystemResetWarning,0830.2,4.99,000.00,025.5,024.7,000.0,033.7,026.9,5.8,0000.0,0003.02,0006.91,0002.12
2023-11-10 20:42:00,SystemResetWarning,0830.2,5.01,000.00,025.5,024.7,000.0,033.7,027.0,5.7,0000.0,0002.98,0005.91,0002.10
2023-11-10 20:43:00,SystemResetWarning,0830.2,5.01,000.00,025.5,024.7,000.0,033.7,027.0,5.6,0000.0,0003.00,0006.12,0002.09
2023-11-10 20:44:00,SystemResetWarning,0830.2,5.01,000.00,025.5,024.8,000.0,033.7,027.0,5.6,0000.0,0002.97,0005.51,0002.06
2023-11-10 20:45:00,SystemResetWarning,0830.2,4.99,000.00,025.5,024.8,000.0,033.7,027.0,5.7,0000.0,0002.88,0005.19,0002.04
2023-11-10 20:46:00,SystemResetWarning,0830.3,4.99,000.00,025.5,024.8,000.0,033.7,027.0,5.7,0000.0,0002.81,0005.15,0002.01
2023-11-10 20:47:00,SystemResetWarning,0830.2,5.00,000.00,025.5,024.8,000.0,033.7,027.0,5.6,0000.0,0002.70,0004.98,0001.99
2023-11-10 20:48:00,SystemResetWarning,0830.2,5.00,000.00,025.5,024.8,000.0,033.7,027.0,5.6,0000.0,0002.66,0006.07,0001.97
2023-11-10 20:49:00,SystemResetWarning,0830.2,5.00,000.00,025.6,024.8,000.0,033.7,027.0,5.7,0000.0,0002.64,0006.34,0001.96
2023-11-10 20:50:00,SystemResetWarning,0830.2,5.01,000.00,025.6,024.8,000.0,033.8,027.0,5.7,0000.0,0002.65,0006.48,0001.96
2023-11-10 20:51:00,SystemResetWarning,0830.2,5.01,000.00,025.6,024.8,000.0,033.8,027.1,5.8,0000.0,0002.62,0006.38,0001.97
2023-11-10 20:52:00,SystemResetWarning,0830.3,5.00,000.00,025.6,024.8,000.0,033.8,027.1,5.9,0000.0,0002.64,0006.42,0001.98
2023-11-10 20:53:00,SystemResetWarning,0830.2,4.99,000.00,025.6,024.9,000.0,033.8,027.1,6.0,0000.0,0002.61,0006.36,0001.98
2023-11-10 20:54:00,SystemResetWarning,0830.2,4.99,000.00,025.6,024.9,000.0,033.8,027.1,6.1,0000.0,0002.53,0005.53,0001.96
2023-11-10 20:55:00,SystemResetWarning,0830.3,5.00,000.00,025.6,024.9,000.0,033.8,027.1,6.0,0000.0,0002.51,0006.01,0001.96
2023-11-10 20:56:00,SystemResetWarning,0830.2,5.01,000.00,025.6,024.9,000.0,033.8,027.1,6.0,0000.0,0002.53,0006.58,0001.96
2023-11-10 20:57:00,SystemResetWarning,0830.2,5.01,000.00,025.6,024.9,000.0,033.9,027.1,6.1,0000.0,0002.54,0006.51,0001.98
2023-11-10 20:58:00,SystemResetWarning,0830.2,5.00,000.00,025.7,024.9,000.0,033.9,027.2,6.0,0000.0,0002.57,0006.57,0001.99
2023-11-10 20:59:00,SystemResetWarning,0830.2,5.01,000.00,025.7,024.9,000.0,033.9,027.2,6.1,0000.0,0002.55,0005.48,0002.01
